Date,TemperatureHighF,TemperatureAvgF,TemperatureLowF,DewpointHighF,DewpointAvgF,DewpointLowF,HumidityHigh,HumidityAvg,HumidityLow,PressureMaxIn,PressureMinIn,WindSpeedMaxMPH,WindSpeedAvgMPH,GustSpeedMaxMPH,PrecipitationSumIn
2013-2-1,70.5,48.7,37.8,23.0,13.1,3.2,40,25,14,28.85,28.64,16,5,26,0.00
2013-2-2,77.7,59.7,45.5,42.8,30.7,17.6,83,36,20,28.79,28.64,11,5,13,0.00
2013-2-3,72.7,59.0,38.5,37.4,21.2,12.2,47,24,11,28.85,28.47,17,7,18,0.00
2013-2-4,79.9,62.5,52.0,51.8,42.9,33.8,83,52,20,28.47,28.29,15,6,18,0.00
2013-2-5,83.8,59.8,47.1,46.4,34.4,15.8,77,44,11,28.50,28.35,10,5,11,0.00
2013-2-6,77.9,65.5,56.3,50.0,44.3,37.4,70,47,29,28.53,28.29,17,7,19,0.00
2013-2-7,83.5,65.7,51.1,55.4,38.5,15.8,88,45,11,28.61,28.38,16,8,18,0.00
2013-2-8,72.0,53.2,44.1,28.4,20.5,5.0,42,30,11,28.76,28.56,14,8,20,0.00
2013-2-9,66.0,56.3,50.0,62.6,48.0,14.0,93,76,21,28.61,28.29,17,10,27,0.00
2013-2-10,68.7,59.0,50.7,62.6,34.9,14.0,90,49,15,28.47,28.23,20,6,30,0.00
2013-2-11,55.9,52.0,47.7,46.4,31.6,24.8,87,48,30,28.61,28.50,14,6,18,0.00
2013-2-13,39.7,38.2,36.3,30.2,26.2,23.0,71,61,53,28.56,28.53,5,2,6,0.00
2013-2-14,73.2,56.3,37.2,30.2,24.2,14.0,69,33,14,28.61,28.47,14,4,16,0.00
2013-2-15,59.9,50.7,38.1,28.4,23.9,12.2,54,35,28,28.85,28.53,14,7,20,0.00
2013-2-16,66.0,47.5,30.4,21.2,16.3,6.8,57,31,15,28.94,28.64,12,4,13,0.00
2013-2-17,70.5,58.5,43.5,33.8,21.2,14.0,41,24,17,28.67,28.44,22,10,26,0.00
2013-2-18,79.3,67.2,57.7,50.0,41.3,14.0,67,45,12,28.53,28.35,20,11,26,0.00
2013-2-19,66.2,50.9,37.8,21.2,17.6,12.2,39,27,15,28.79,28.56,17,8,21,0.00
2013-2-20,54.5,52.2,49.1,50.0,28.3,19.4,97,44,26,28.56,28.23,17,11,23,0.00
2013-2-21,72.7,64.7,51.3,64.4,36.7,8.6,98,47,11,28.35,28.11,26,13,35,0.00
2013-2-22,64.0,46.2,35.6,33.8,21.6,15.8,70,39,21,28.59,28.44,12,6,13,0.00
2013-2-23,73.9,53.2,32.2,26.6,20.0,10.4,57,30,13,28.56,28.38,12,4,14,0.00
2013-2-24,73.8,53.0,40.6,44.6,29.5,23.0,60,41,23,28.41,28.17,20,8,26,0.00
2013-2-25,50.9,43.8,39.2,21.2,17.8,14.0,40,35,24,28.38,28.17,36,18,42,0.00
2013-2-26,69.3,49.3,34.7,23.0,17.8,14.0,50,30,15,28.47,28.32,16,7,17,0.00
2013-2-27,63.5,52.5,38.7,23.0,15.7,3.2,45,24,14,28.70,28.38,20,8,26,0.00
2013-2-28,64.8,48.4,35.4,19.4,13.6,5.0,45,26,13,28.85,28.64,13,5,14,0.00